Temperature
31 31 31 31 31 31 31 31 30 30 30 30 29 29 28 27 27 26 25 25 24 23 22 22 22 21 21 20 20 20 19 19 19 18 18 18 18 17 17 17 17 17 16 16
30 31 31 31 31 31 31 31 31 30 29 29 28 28 27 27 26 25 24 24 23 23 22 21 21 21 20 20 20 19 19 19 19 18 18 17 17 17 17 17 16 16 16 16
28 30 30 30 31 31 31 31 31 29 28 28 27 27 26 26 25 24 24 23 23 22 22 21 20 20 20 19 19 19 19 18 18 18 17 17 17 17 17 16 16 16 16 16
28 28 27 30 31 31 30 29 30 29 28 28 27 26 26 25 24 24 23 22 22 21 21 20 20 20 19 19 19 18 18 18 17 17 17 17 17 17 16 16 16 16 16 15
27 27 28 29 30 30 29 28 29 28 28 27 26 25 25 24 23 23 22 22 21 21 20 20 20 19 19 18 18 18 18 17 17 17 17 17 16 16 16 16 16 15 15 15
27 26 26 26 28 28 28 27 27 27 26 26 26 25 24 23 22 22 21 21 20 20 20 20 19 19 19 18 18 18 17 17 17 17 16 16 16 16 16 16 15 15 15 15
26 26 26 26 27 28 26 24 25 25 25 25 24 24 23 22 21 21 20 20 20 19 19 19 19 18 18 18 17 17 17 17 16 16 16 16 16 16 15 15 15 15 15 15
26 25 24 25 26 25 24 24 24 24 24 23 22 22 21 21 20 19 19 19 19 19 18 18 18 18 18 17 17 17 16 16 16 16 16 16 15 15 15 15 15 15 15 14
25 24 23 24 23 23 23 23 23 23 22 22 21 21 20 19 19 18 18 18 18 18 17 17 17 17 17 17 16 16 16 16 15 15 15 15 15 15 15 15 14 14 14 14
24 24 24 23 23 22 22 22 22 21 21 21 20 20 19 19 18 18 17 17 17 17 16 16 16 16 16 16 16 16 15 15 15 15 15 15 15 14 14 14 14 14 14 14
23 23 23 22 22 21 21 21 21 21 20 20 20 19 19 18 17 17 16 16 16 16 16 16 15 15 15 15 15 15 15 15 15 15 14 14 14 14 14 14 14 14 14 14
22 22 22 21 21 21 20 20 20 20 20 19 19 18 18 17 17 16 16 16 16 15 15 15 15 15 15 15 15 15 14 14 14 14 14 14 14 14 14 14 14 14 14 14
21 21 21 21 20 20 20 19 19 19 19 18 18 17 17 16 16 16 16 15 15 15 15 15 14 14 14 14 14 14 14 14 14 14 14 14 14 14 14 13 14 13 13 13
20 20 20 20 20 19 19 19 18 18 18 18 17 17 16 16 16 15 15 15 15 14 14 14 14 14 14 14 14 14 13 13 13 14 14 14 14 14 14 13 13 13 13 13
19 19 19 19 19 19 18 18 18 18 17 17 17 16 16 15 15 15 14 14 14 14 14 14 14 13 13 13 13 13 13 13 13 13 13 13 13 13 13 13 13 13 13 13
19 19 19 18 18 18 18 18 17 17 17 16 16 16 15 15 14 14 14 14 13 13 13 13 13 13 13 13 13 13 13 13 13 12 12 13 13 13 13 13 13 13 13 13
18 18 18 18 18 17 17 17 17 16 16 16 15 15 15 14 14 14 13 13 13 13 13 13 13 12 12 12 12 12 12 12 12 12 12 12 12 13 13 13 13 13 12 12
18 18 17 17 17 17 16 16 16 15 15 15 15 14 14 14 13 13 13 13 13 12 12 12 12 12 12 12 12 12 12 12 12 12 12 12 12 12 12 12 12 12 12 12
17 17 17 16 16 16 15 15 15 15 14 14 14 13 13 13 13 12 12 12 12 12 12 12 12 12 12 12 12 12 12 12 12 12 12 12 12 12 12 12 12 12 12 12
16 16 16 16 15 15 15 14 14 14 14 13 13 13 12 12 12 12 12 12 12 12 12 11 11 11 11 11 11 11 11 11 11 11 11 11 11 11 11 11 11 11 11 11
16 15 15 15 14 14 14 14 13 13 13 13 12 12 12 12 12 12 11 11 11 11 11 11 11 11 11 11 11 11 11 11 11 11 11 10 10 10 10 11 11 11 11 11
15 14 14 14 14 13 13 13 13 12 12 12 12 12 11 11 11 11 11 11 11 11 11 11 11 11 11 11 10 10 10 10 10 10 10 10 10 10 10 10 10 10 10 10
14 13 13 13 13 13 12 12 12 12 12 11 11 11 11 11 11 11 11 11 11 11 10 10 10 10 10 10 10 10 10 10 10 10 10 10 10 10 10 10 10 10 10 10
13 13 13 12 12 12 12 12 12 12 11 11 11 11 11 11 11 11 11 11 10 10 10 10 10 10 10 10 9 9 10 10 9 9 9 9 9 9 9 9 9 9 9 9
12 12 12 12 12 12 12 12 12 11 11 11 11 11 11 11 11 11 10 10 10 10 10 10 10 10 9 9 9 9 9 9 9 9 9 9 9 9 9 9 9 9 9 9
12 12 12 11 11 11 12 11 11 11 11 11 11 11 11 11 11 10 10 10 10 10 10 10 9 9 9 9 9 9 9 9 9 9 9 8 8 8 8 8 8 8 8 8
12 12 11 11 11 11 11 11 11 11 11 11 10 10 10 11 10 10 10 10 10 10 10 9 9 9 9 9 9 9 9 9 8 8 8 8 8 8 8 8 8 8 8 8
Wind_Speed
13 12 11 12 13 12 13 12 11 8 7 3 5 5 5 7 6 6 5 5 5 5 5 4 5 4 4 4 4 4 4 4 3 2 2 2 3 4 3 3 3 2 2 2
13 13 13 13 13 13 14 12 10 6 4 1 5 7 5 5 6 5 4 4 4 4 4 4 4 4 3 4 4 4 4 4 4 3 2 2 2 3 3 3 3 3 3 2
13 14 14 13 10 10 8 5 4 2 1 3 4 5 4 4 5 4 4 3 3 3 4 4 4 4 4 3 4 4 3 3 3 3 3 3 3 3 3 3 3 2 2 2
11 13 15 10 6 6 3 3 2 2 3 3 4 5 3 4 5 4 4 2 3 2 3 3 4 4 3 3 3 4 4 3 3 3 3 2 2 2 4 4 4 3 3 3
10 13 14 7 6 5 3 2 3 3 2 3 6 5 3 5 4 3 4 3 2 2 3 3 3 4 4 3 3 4 3 3 3 3 3 3 3 3 2 3 3 4 4 4
11 13 12 5 7 7 5 3 4 4 3 2 2 1 1 3 4 4 4 3 2 2 2 2 2 3 4 3 3 3 2 2 2 2 2 3 3 3 2 2 3 3 3 3
13 13 6 6 7 6 4 2 6 4 3 3 4 3 4 5 5 5 4 4 3 3 3 3 2 2 3 2 2 2 2 2 2 3 3 4 3 3 3 3 3 4 4 4
10 10 4 9 5 3 4 5 6 6 6 6 6 6 5 5 5 4 4 4 4 4 4 4 4 4 3 1 1 1 2 2 2 2 3 3 3 3 3 3 3 4 5 5
3 1 3 6 6 6 5 5 6 6 6 5 4 5 5 5 5 5 5 4 4 4 4 4 4 3 2 1 1 1 1 1 1 1 2 2 3 3 4 4 4 4 4 4
2 1 3 4 5 6 6 5 5 5 5 4 3 4 4 4 4 4 4 4 3 3 3 3 2 2 2 2 1 1 0 1 1 2 2 2 3 3 3 3 3 4 3 3
3 2 2 2 3 4 4 4 4 4 4 4 3 3 3 3 3 3 3 3 3 2 2 2 2 2 2 2 2 1 1 2 2 3 3 2 2 2 2 1 2 3 2 2
3 1 2 1 2 2 3 3 4 4 4 4 3 3 3 3 3 3 2 2 2 2 2 2 2 2 2 2 1 1 2 2 3 3 2 2 2 2 2 3 2 3 4 4
3 4 2 2 2 3 2 3 3 3 2 2 2 2 2 2 2 1 1 1 2 1 1 1 1 1 2 2 2 2 2 2 3 3 3 3 3 3 2 3 3 3 5 6
3 3 2 2 2 3 2 2 2 2 3 2 1 2 2 1 1 2 1 1 1 1 1 1 2 2 2 2 2 3 3 3 4 3 3 3 4 4 4 4 3 3 4 7
3 3 2 1 2 3 2 2 2 2 2 2 1 1 1 1 1 1 1 2 2 1 2 2 2 3 3 3 2 3 4 3 3 4 5 4 4 4 5 4 4 3 2 3
5 4 3 3 3 3 3 3 3 3 2 2 1 1 1 1 2 2 2 2 2 2 2 2 3 3 3 3 4 4 3 5 5 5 5 5 5 5 5 4 4 4 4 3
6 5 5 4 4 4 3 3 3 3 3 2 2 2 2 2 2 3 3 3 2 2 2 3 3 3 3 4 5 5 4 4 6 6 5 5 5 5 5 4 4 4 5 3
5 4 4 3 3 3 3 3 3 3 3 3 3 3 3 3 3 3 4 4 3 3 3 4 3 3 4 5 5 6 5 5 5 5 5 5 5 5 5 5 5 6 5 3
3 3 2 2 2 2 2 3 3 3 2 2 2 3 3 3 4 4 4 4 4 4 4 4 4 5 5 5 6 6 6 6 5 5 5 5 5 6 6 5 5 5 4 3
2 1 2 2 2 2 2 2 3 3 3 2 3 3 4 4 5 5 5 5 4 4 4 4 4 5 5 4 6 6 6 6 6 5 5 5 5 5 6 6 6 5 4 4
1 2 2 2 2 2 2 3 3 3 3 2 3 3 4 4 5 4 5 5 3 3 4 4 3 3 4 5 6 6 6 6 5 5 5 5 6 6 6 6 6 6 5 5
1 2 2 2 2 3 3 3 3 3 3 3 4 4 4 5 5 5 3 3 4 3 4 4 3 3 5 6 4 5 5 5 4 4 4 5 6 6 6 6 6 5 5 5
2 2 2 3 3 3 3 4 4 4 4 4 4 4 5 5 5 5 4 3 3 4 4 4 3 3 5 5 5 5 6 5 5 5 5 5 5 6 6 6 5 5 4 4
2 3 3 3 3 4 4 4 5 4 5 4 4 4 5 5 4 4 3 2 2 4 5 3 4 5 5 5 5 5 5 4 4 4 5 5 5 5 5 5 5 5 4 5
3 3 3 4 4 4 4 5 5 4 4 4 4 4 4 4 4 4 4 4 3 4 5 3 5 6 6 5 4 4 4 4 4 5 5 5 5 4 4 5 5 5 4 4
3 3 2 3 3 3 4 4 4 4 4 4 4 4 4 3 3 3 3 4 5 4 5 4 4 5 4 4 4 4 4 4 4 4 4 4 4 4 5 5 6 5 4 4
3 2 2 2 2 3 3 3 4 4 4 4 4 4 4 3 3 4 4 4 4 4 4 4 4 4 4 4 4 4 4 3 3 3 3 4 4 3 4 5 4 5 5 4
Wind_Direction
266 268 254 257 258 254 259 263 268 261 256 229 147 133 127 127 128 129 124 121 114 108 104 104 106 114 127 141 135 139 143 151 155 162 157 160 163 166 172 187 202 195 198 201
275 268 267 259 258 251 251 253 252 253 255 81 101 118 122 127 137 134 125 121 119 116 115 113 123 128 126 136 136 140 148 149 145 153 158 150 172 167 172 189 204 201 207 214
273 278 273 260 263 267 271 286 272 251 170 104 115 121 137 141 137 134 138 147 125 123 122 128 132 133 136 141 142 141 145 147 148 157 166 175 191 169 182 197 201 209 212 214
266 274 265 270 283 286 295 312 348 88 115 121 113 96 92 113 118 126 133 145 135 132 123 116 121 128 132 143 141 144 149 151 158 170 177 181 193 193 204 199 200 205 213 211
263 262 263 274 312 329 315 308 20 46 70 105 105 99 84 85 91 109 133 134 119 120 129 118 121 139 145 156 151 156 164 168 175 181 185 196 206 212 218 209 208 209 210 202
256 262 267 302 331 336 307 271 39 50 16 28 117 184 102 87 74 80 87 93 93 85 92 93 105 152 158 170 160 166 174 178 177 187 202 208 209 209 213 214 216 219 222 215
256 262 269 335 337 311 273 350 13 37 30 35 45 45 78 79 84 88 90 84 82 79 77 73 72 99 124 132 165 174 167 169 176 191 205 205 204 209 215 223 227 221 226 224
256 262 276 352 349 3 36 41 30 38 40 48 57 69 68 71 86 89 87 83 73 65 64 64 64 76 80 75 129 133 146 173 196 209 233 219 192 206 211 219 235 229 227 229
295 346 65 38 49 40 33 44 37 31 32 48 56 70 68 72 83 82 77 68 67 67 65 59 55 62 64 34 56 119 152 189 217 231 242 219 202 212 216 220 234 243 234 231
274 88 58 44 41 37 31 37 30 25 22 26 51 63 75 77 75 72 67 65 58 65 72 63 49 39 31 28 31 77 193 255 235 223 235 236 229 229 228 233 241 248 256 259
273 299 316 18 32 30 25 27 22 18 11 14 56 65 67 78 79 77 71 60 62 64 58 45 34 27 25 26 33 14 273 270 256 250 243 243 244 261 254 251 242 251 273 284
279 308 293 328 19 25 33 17 6 10 10 21 36 48 51 69 71 66 59 49 32 33 34 33 31 13 4 2 359 286 255 262 267 262 256 255 240 261 265 233 206 210 228 247
350 340 335 343 350 352 359 357 350 349 354 4 26 44 40 53 71 67 48 39 27 19 23 7 4 6 9 4 345 317 300 292 286 279 264 257 255 246 260 254 238 239 242 240
347 325 303 305 316 320 327 332 329 333 332 340 35 43 34 43 44 43 20 343 329 348 347 343 358 358 352 332 321 309 299 295 292 289 284 275 269 261 250 253 255 252 240 235
304 292 274 291 315 304 296 290 284 298 324 340 18 54 43 21 6 343 325 310 312 324 328 331 332 331 330 310 297 290 293 294 295 295 287 283 283 281 276 272 273 273 254 246
282 279 263 260 271 281 287 288 291 294 299 307 311 336 355 330 323 313 302 293 291 295 307 310 305 309 316 314 301 278 265 269 277 285 284 279 273 274 275 276 275 272 264 248
263 258 256 257 264 274 281 285 288 293 293 288 298 301 301 297 295 301 300 290 287 284 294 293 292 304 312 305 296 288 279 265 255 272 276 282 285 284 281 275 275 269 266 256
267 263 259 264 267 272 278 280 285 290 296 301 308 304 301 300 297 301 298 294 289 292 301 299 303 305 296 292 290 287 287 282 272 271 278 282 285 288 286 280 279 284 285 257
267 259 261 271 272 273 285 293 300 315 333 329 322 311 309 308 306 302 302 303 297 292 299 303 296 292 290 287 288 276 277 277 276 273 277 269 269 275 279 281 280 281 284 275
259 260 272 281 280 280 285 296 302 310 309 305 305 306 305 305 305 304 305 301 298 300 305 302 291 289 290 294 290 282 282 284 287 289 289 289 287 288 289 290 290 287 283 277
275 270 268 274 284 286 289 296 301 302 305 297 293 293 296 300 302 300 297 297 316 323 313 300 289 297 303 307 291 292 291 288 285 287 290 292 290 289 290 292 291 288 286 281
311 298 289 292 291 297 298 293 293 292 288 287 289 288 289 291 290 287 289 296 306 324 312 303 306 332 325 309 299 299 293 292 297 298 293 288 287 289 289 290 291 292 290 287
307 305 302 301 302 302 301 294 287 282 279 280 284 283 282 286 285 288 293 299 302 309 307 310 313 313 309 301 300 294 291 297 298 294 289 286 286 287 289 293 294 295 295 293
303 297 291 288 288 286 286 287 284 280 274 271 269 272 276 276 276 278 283 273 273 285 294 286 270 272 273 280 286 288 290 291 291 292 291 293 294 294 293 294 295 298 298 297
290 283 283 286 278 279 280 279 276 270 269 272 274 274 272 270 271 281 297 303 293 279 292 272 249 253 262 276 279 287 294 297 297 296 291 295 299 302 304 302 301 300 301 300
282 274 276 277 287 289 287 295 303 305 298 295 297 294 288 282 275 275 279 283 288 285 289 290 272 260 272 282 288 289 291 291 295 299 307 306 307 310 310 311 312 311 308 302
260 267 263 272 282 287 294 296 295 296 302 309 306 301 300 298 292 288 285 285 293 295 295 296 296 291 285 286 287 287 293 304 310 315 317 318 316 312 310 311 311 312 315 317
Height
1452 1449 1449 1452 1452 1452 1456 1458 1464 1465 1463 1461 1461 1465 1469 1473 1476 1479 1481 1484 1486 1488 1490 1491 1492 1494 1495 1497 1498 1499 1500 1501 1502 1503 1504 1505 1505 1505 1507 1508 1510 1510 1511 1511
1456 1449 1447 1449 1448 1448 1450 1450 1452 1457 1463 1459 1461 1465 1470 1473 1477 1479 1482 1484 1486 1488 1489 1490 1491 1492 1494 1495 1496 1497 1498 1498 1499 1501 1502 1502 1503 1503 1504 1506 1507 1508 1509 1509
1465 1453 1451 1458 1449 1446 1447 1446 1449 1459 1461 1459 1464 1467 1470 1473 1476 1479 1482 1484 1485 1487 1488 1489 1490 1491 1492 1494 1495 1496 1496 1497 1498 1499 1500 1500 1501 1502 1502 1503 1505 1505 1506 1506
1462 1463 1474 1455 1440 1441 1446 1450 1449 1453 1457 1460 1465 1468 1472 1474 1476 1479 1482 1484 1485 1486 1487 1488 1489 1490 1491 1492 1493 1494 1495 1495 1496 1497 1498 1498 1499 1500 1500 1501 1502 1502 1503 1504
1465 1470 1464 1452 1445 1446 1451 1455 1454 1456 1459 1462 1465 1469 1473 1475 1477 1479 1481 1483 1484 1485 1486 1487 1488 1489 1490 1491 1492 1493 1494 1494 1494 1495 1496 1496 1497 1497 1498 1499 1499 1500 1500 1501
1464 1471 1473 1463 1451 1450 1453 1462 1458 1460 1463 1464 1465 1471 1475 1476 1478 1479 1481 1482 1483 1484 1484 1485 1486 1487 1488 1489 1490 1491 1492 1492 1492 1493 1494 1494 1495 1495 1496 1497 1497 1498 1498 1499
1463 1466 1465 1459 1454 1453 1468 1473 1464 1464 1465 1467 1469 1473 1476 1477 1478 1480 1481 1482 1482 1483 1484 1484 1485 1486 1487 1488 1488 1489 1490 1490 1491 1491 1491 1492 1493 1493 1494 1494 1495 1495 1495 1496
1462 1468 1475 1463 1459 1464 1470 1468 1468 1467 1469 1470 1472 1474 1476 1477 1478 1480 1481 1481 1481 1482 1483 1483 1484 1484 1485 1486 1487 1487 1487 1488 1489 1489 1490 1491 1491 1491 1491 1492 1492 1492 1493 1493
1462 1470 1469 1466 1467 1469 1469 1470 1471 1471 1472 1473 1474 1476 1477 1477 1478 1479 1480 1481 1481 1482 1482 1483 1483 1483 1484 1484 1485 1485 1486 1486 1487 1487 1488 1489 1489 1489 1489 1489 1490 1490 1490 1490
1463 1465 1467 1468 1469 1470 1472 1473 1474 1473 1474 1475 1476 1477 1477 1478 1479 1480 1480 1481 1482 1482 1482 1482 1482 1482 1483 1483 1483 1483 1484 1484 1485 1485 1486 1486 1486 1487 1487 1487 1487 1487 1488 1488
1464 1466 1467 1469 1471 1472 1473 1474 1474 1475 1475 1476 1476 1477 1478 1479 1480 1480 1481 1481 1482 1482 1482 1482 1482 1481 1481 1481 1481 1481 1481 1482 1483 1483 1483 1484 1484 1484 1484 1484 1484 1484 1484 1484
1466 1467 1469 1471 1472 1473 1474 1475 1475 1476 1476 1477 1477 1478 1479 1479 1480 1480 1481 1481 1481 1481 1481 1481 1480 1480 1480 1480 1480 1479 1480 1479 1480 1480 1480 1481 1481 1481 1480 1480 1480 1480 1481 1481
1467 1468 1469 1471 1472 1473 1474 1475 1476 1476 1477 1477 1478 1478 1478 1479 1480 1480 1480 1480 1480 1480 1480 1480 1479 1478 1478 1478 1478 1477 1478 1477 1477 1477 1478 1478 1478 1477 1476 1476 1476 1476 1476 1476
1469 1470 1471 1472 1473 1474 1474 1475 1476 1476 1477 1477 1478 1478 1478 1478 1479 1479 1479 1479 1479 1479 1479 1478 1477 1477 1476 1476 1476 1476 1475 1475 1475 1475 1474 1474 1474 1473 1473 1472 1472 1472 1472 1472
1469 1470 1471 1472 1473 1474 1474 1475 1475 1476 1476 1477 1477 1478 1478 1478 1478 1478 1478 1478 1478 1477 1477 1476 1475 1475 1474 1474 1473 1473 1473 1472 1472 1472 1472 1471 1471 1470 1470 1469 1469 1468 1468 1468
1469 1470 1470 1471 1472 1473 1474 1474 1475 1475 1476 1476 1476 1477 1477 1477 1477 1477 1476 1476 1475 1475 1474 1474 1473 1473 1472 1472 1471 1471 1470 1470 1469 1469 1468 1468 1467 1467 1466 1465 1465 1465 1465 1464
1468 1469 1470 1470 1472 1472 1473 1474 1474 1475 1475 1475 1475 1475 1475 1475 1475 1475 1474 1474 1473 1472 1472 1471 1470 1470 1469 1469 1468 1468 1468 1467 1466 1466 1465 1465 1464 1463 1463 1462 1462 1461 1461 1460
1467 1468 1469 1470 1471 1471 1472 1473 1473 1473 1473 1473 1473 1473 1473 1473 1473 1473 1472 1471 1470 1470 1469 1468 1468 1467 1466 1466 1465 1465 1464 1464 1463 1462 1462 1461 1460 1459 1459 1459 1458 1457 1457 1456
1466 1467 1468 1469 1469 1470 1471 1471 1472 1472 1471 1471 1471 1471 1471 1471 1471 1470 1470 1468 1467 1466 1466 1465 1465 1464 1463 1462 1462 1461 1461 1460 1459 1458 1457 1457 1456 1456 1455 1454 1454 1453 1453 1452
1465 1466 1467 1467 1468 1468 1469 1470 1470 1470 1469 1469 1469 1469 1469 1468 1468 1467 1467 1466 1464 1464 1463 1462 1461 1460 1460 1459 1458 1457 1457 1456 1455 1454 1454 1453 1452 1451 1451 1450 1449 1449 1448 1447
1464 1465 1466 1466 1467 1467 1468 1468 1468 1467 1467 1467 1467 1466 1466 1466 1465 1464 1463 1463 1461 1460 1460 1459 1458 1457 1456 1455 1454 1454 1453 1452 1451 1450 1450 1449 1448 1447 1446 1446 1445 1444 1444 1443
1464 1464 1465 1465 1465 1466 1466 1466 1466 1465 1465 1465 1464 1464 1463 1463 1462 1461 1460 1459 1458 1457 1456 1456 1455 1453 1452 1451 1450 1450 1449 1448 1447 1446 1445 1444 1444 1443 1442 1441 1440 1440 1439 1438
1463 1463 1463 1464 1464 1464 1464 1463 1463 1463 1462 1461 1461 1460 1460 1459 1459 1458 1457 1456 1455 1454 1453 1452 1451 1450 1448 1447 1447 1446 1445 1444 1443 1442 1441 1440 1439 1438 1438 1437 1436 1435 1434 1434
1461 1462 1462 1462 1462 1462 1461 1461 1460 1459 1459 1458 1457 1457 1456 1456 1455 1455 1454 1453 1452 1451 1450 1449 1448 1446 1445 1444 1443 1442 1441 1440 1439 1438 1437 1436 1435 1434 1433 1433 1432 1431 1430 1429
1459 1459 1459 1459 1459 1459 1458 1458 1457 1456 1455 1454 1454 1453 1453 1452 1452 1451 1450 1449 1448 1447 1446 1445 1443 1442 1441 1440 1439 1438 1437 1436 1435 1434 1433 1432 1432 1430 1430 1429 1428 1427 1426 1425
1457 1457 1457 1457 1457 1456 1456 1455 1454 1453 1452 1451 1451 1450 1450 1449 1448 1448 1447 1446 1445 1444 1443 1441 1440 1439 1438 1437 1436 1435 1434 1433 1432 1431 1430 1429 1428 1427 1426 1425 1424 1423 1422 1421
1455 1455 1454 1454 1454 1454 1453 1452 1452 1451 1450 1449 1448 1447 1447 1446 1446 1445 1444 1443 1442 1441 1440 1439 1437 1436 1435 1434 1432 1431 1430 1429 1428 1427 1426 1425 1424 1423 1422 1421 1420 1419 1418 1417